Weather reports worldwide

Advertisment
La Coruna/Alvedro, Spain (8002): temperature & dewpoint: 11.06.2019 20:00:00 - 17.06.2019 20:00:00 (CEST)La Coruna/Alvedro, Spain (8002): wind speed: 11.06.2019 20:00:00 - 17.06.2019 20:00:00 (CEST)La Coruna/Alvedro, Spain (8002): wind direction: 11.06.2019 20:00:00 - 17.06.2019 20:00:00 (CEST)La Coruna/Alvedro, Spain (8002): reduced air pressure: 11.06.2019 20:00:00 - 17.06.2019 20:00:00 (CEST)La Coruna/Alvedro, Spain (8002): visibility: 11.06.2019 20:00:00 - 17.06.2019 20:00:00 (CEST)La Coruna/Alvedro, Spain (8002): precipitation: 11.06.2019 20:00:00 - 17.06.2019 20:00:00 (CEST)
Date & Time tt [°C] td [°C] ff [km/h] ff [kn] dd ppp [hPa] vv [km] rr [mm]
17.06.2019 20:00:00 - - - - - - - -
17.06.2019 19:00:00 18,5 13,3 8 4 N 1014,4 24 -
17.06.2019 18:00:00 16,7 13,0 9 5 N 1014,9 20 -
17.06.2019 17:00:00 17,8 13,5 4 2 - 1015,4 10 -
17.06.2019 16:00:00 17,3 13,0 8 4 N 1015,4 24 -
17.06.2019 15:00:00 16,9 13,0 9 5 NNE 1016,0 10 -
17.06.2019 14:00:00 17,6 12,8 9 5 NNE 1016,2 10 -
17.06.2019 13:00:00 18,4 13,4 4 2 - 1016,1 10 -
17.06.2019 12:00:00 16,9 13,1 9 5 SW 1016,5 16 -
17.06.2019 11:00:00 15,3 12,1 5 3 SSE 1016,5 10 -
17.06.2019 10:00:00 14,1 12,7 5 3 S 1016,8 10 -
17.06.2019 09:00:00 12,9 12,4 4 2 S 1017,3 12 -
17.06.2019 08:00:00 11,9 11,6 0 0 N 1017,7 10 -
17.06.2019 07:00:00 11,0 10,7 4 2 S 1017,8 7 -
17.06.2019 06:00:00 10,7 10,4 5 3 S 1018,0 5 -
17.06.2019 05:00:00 11,3 10,8 4 2 S 1017,9 10 -
17.06.2019 04:00:00 12,1 11,6 4 2 SSW 1018,6 11 -
17.06.2019 03:00:00 12,5 11,7 5 3 SSW 1018,6 15 -
17.06.2019 02:00:00 13,2 12,3 5 3 NW 1019,0 10 -
17.06.2019 01:00:00 13,7 12,1 0 0 N 1019,3 10 -
17.06.2019 00:00:00 14,6 12,5 2 1 - 1019,5 10 -
16.06.2019 23:00:00 14,9 12,2 5 3 NW 1019,5 10 -
16.06.2019 22:00:00 15,8 11,8 9 5 N 1019,5 10 -
16.06.2019 21:00:00 16,6 11,9 16 9 N 1019,5 10 -
16.06.2019 20:00:00 17,2 12,0 16 9 N 1019,3 22 -
16.06.2019 19:00:00 17,5 11,1 16 9 N 1019,3 10 -
16.06.2019 18:00:00 17,9 11,5 16 9 N 1019,6 30 -
16.06.2019 17:00:00 17,9 12,1 16 9 N 1019,7 10 -
16.06.2019 16:00:00 17,7 12,0 16 9 N 1019,8 10 -
16.06.2019 15:00:00 17,8 12,4 16 9 NNE 1019,9 10 -
16.06.2019 14:00:00 17,5 10,2 16 9 NNE 1020,0 10 -
16.06.2019 13:00:00 18,0 11,3 11 6 NNE 1020,2 10 -
16.06.2019 12:00:00 17,6 11,1 9 5 N 1020,7 10 -
16.06.2019 11:00:00 16,4 9,7 4 2 N 1020,8 30 -
16.06.2019 10:00:00 14,0 12,0 5 3 S 1021,1 22 -
16.06.2019 09:00:00 9,8 9,5 8 4 S 1021,2 0,1 -
16.06.2019 08:00:00 9,0 8,9 5 3 S 1021,1 0,2 0,0
16.06.2019 07:00:00 9,1 9,0 9 5 S 1021,1 0,1 -
16.06.2019 06:00:00 9,5 9,2 5 3 S 1021,0 0,2 -
16.06.2019 05:00:00 10,4 10,0 4 2 S 1021,4 8 -
16.06.2019 04:00:00 11,1 10,6 9 5 S 1021,6 9 -
16.06.2019 03:00:00 12,1 11,0 0 0 N 1021,9 10 -
16.06.2019 02:00:00 13,4 11,5 4 2 S 1022,4 30 -
16.06.2019 01:00:00 14,8 11,4 0 0 N 1022,6 10 -
16.06.2019 00:00:00 14,9 11,3 5 3 NNW 1022,5 10 -
15.06.2019 23:00:00 15,2 10,8 4 2 NW 1022,2 30 -
15.06.2019 22:00:00 15,6 10,8 9 5 NNW 1021,9 10 -
15.06.2019 21:00:00 16,6 11,6 9 5 NNW 1021,8 10 -
15.06.2019 20:00:00 17,0 11,4 11 6 NNW 1021,7 10 -
15.06.2019 19:00:00 16,7 10,1 11 6 NW 1021,7 30 -
15.06.2019 18:00:00 16,3 10,3 9 5 NW 1022,1 10 -
15.06.2019 17:00:00 16,1 11,1 8 4 NW 1022,2 30 -
15.06.2019 16:00:00 16,5 11,0 15 8 NNW 1021,9 30 -
15.06.2019 15:00:00 18,1 10,1 11 6 WNW 1021,7 28 -
15.06.2019 14:00:00 16,9 9,8 13 7 WNW 1021,8 30 -
15.06.2019 13:00:00 15,6 10,1 11 6 W 1021,7 30 -
15.06.2019 12:00:00 18,0 10,1 8 4 W 1021,1 10 -
15.06.2019 11:00:00 16,6 9,9 13 7 SW 1021,0 30 -
15.06.2019 10:00:00 15,5 11,3 11 6 SSW 1020,7 10 -
15.06.2019 09:00:00 13,6 10,8 11 6 SSE 1020,3 27 -
15.06.2019 08:00:00 11,5 9,6 13 7 SW 1020,2 10 -
15.06.2019 07:00:00 10,3 9,1 16 9 SW 1019,9 30 -
15.06.2019 06:00:00 10,4 9,3 13 7 SW 1019,3 10 -
15.06.2019 05:00:00 11,0 10,5 8 4 SSW 1019,1 10 -
15.06.2019 04:00:00 11,9 11,1 8 4 SSW 1019,3 22 -
15.06.2019 03:00:00 12,3 11,5 11 6 SSW 1019,4 30 -
15.06.2019 02:00:00 12,7 11,8 11 6 WSW 1019,4 10 -
15.06.2019 01:00:00 12,9 11,6 8 4 WSW 1019,1 30 -
15.06.2019 00:00:00 12,7 10,8 11 6 W 1018,8 10 -
14.06.2019 23:00:00 13,4 12,6 11 6 SE 1018,2 30 -
14.06.2019 22:00:00 13,7 12,9 5 3 S 1017,7 10 -
14.06.2019 21:00:00 14,3 12,2 4 2 SSW 1017,3 30 -
14.06.2019 20:00:00 13,7 12,3 9 5 NW 1017,0 10 -
14.06.2019 19:00:00 15,4 11,3 11 6 NW 1016,4 10 -
14.06.2019 18:00:00 14,1 10,5 15 8 WNW 1016,3 10 -
14.06.2019 17:00:00 16,6 10,2 15 8 NNW 1015,5 10 -
14.06.2019 16:00:00 16,6 9,5 16 9 N 1015,3 10 -
14.06.2019 15:00:00 16,0 10,2 11 6 NE 1015,1 10 -
14.06.2019 14:00:00 17,4 10,7 15 8 NNE 1015,1 30 -
14.06.2019 13:00:00 17,2 11,1 15 8 NE 1014,9 10 -
14.06.2019 12:00:00 16,6 10,7 9 5 N 1014,7 10 -
14.06.2019 11:00:00 16,3 10,3 5 3 ESE 1014,7 24 -
14.06.2019 10:00:00 13,5 9,7 5 3 SSE 1014,6 30 -
14.06.2019 09:00:00 10,0 8,1 5 3 S 1014,5 10 -
14.06.2019 08:00:00 7,3 6,9 8 4 S 1014,7 12 -
14.06.2019 07:00:00 6,3 6,0 5 3 S 1014,5 10 -
14.06.2019 06:00:00 6,9 6,6 5 3 S 1014,0 14 -
14.06.2019 05:00:00 7,2 6,8 5 3 S 1014,1 10 -
14.06.2019 04:00:00 7,7 7,1 5 3 S 1014,1 10 -
14.06.2019 03:00:00 8,2 7,4 8 4 S 1014,2 10 -
14.06.2019 02:00:00 8,9 7,8 5 3 S 1014,7 10 -
14.06.2019 01:00:00 10,2 8,1 4 2 - 1014,9 10 -
14.06.2019 00:00:00 11,6 8,8 0 0 N 1014,9 10 -
13.06.2019 23:00:00 12,2 8,5 2 1 - 1014,8 10 -
13.06.2019 22:00:00 14,3 8,7 5 3 NNW 1014,2 30 -
13.06.2019 21:00:00 15,7 8,7 9 5 NNW 1013,9 10 -
13.06.2019 20:00:00 15,9 8,7 13 7 NNE 1013,6 30 -
13.06.2019 19:00:00 15,8 8,7 9 5 NNE 1013,6 10 -
13.06.2019 18:00:00 16,6 8,4 13 7 NNW 1013,3 10 -
13.06.2019 17:00:00 17,0 9,3 15 8 N 1013,1 10 -
13.06.2019 16:00:00 16,3 9,3 16 9 N 1013,1 30 -
13.06.2019 15:00:00 16,6 8,4 15 8 N 1013,0 30 -
13.06.2019 14:00:00 16,3 9,8 15 8 NE 1013,1 30 -
13.06.2019 13:00:00 16,1 9,4 11 6 NE 1013,0 10 -
13.06.2019 12:00:00 13,8 9,4 5 3 WNW 1013,3 10 -
13.06.2019 11:00:00 14,1 8,9 8 4 NNE 1013,2 30 -
13.06.2019 10:00:00 14,6 9,7 5 3 SSE 1013,2 10 -
13.06.2019 09:00:00 10,7 8,5 8 4 SSE 1013,2 20 -
13.06.2019 08:00:00 8,8 7,9 2 1 - 1013,2 10 -
13.06.2019 07:00:00 7,4 7,0 8 4 S 1013,2 10 -
13.06.2019 06:00:00 7,9 7,3 8 4 SSE 1013,4 17 -
13.06.2019 05:00:00 8,4 7,6 8 4 S 1013,5 23 -
13.06.2019 04:00:00 8,6 7,7 5 3 S 1013,6 30 -
13.06.2019 03:00:00 8,8 7,7 8 4 S 1013,7 30 -
13.06.2019 02:00:00 9,8 7,7 4 2 SSW 1014,3 10 -
13.06.2019 01:00:00 11,1 7,8 4 2 SSW 1014,6 10 -
13.06.2019 00:00:00 11,9 7,8 2 1 - 1015,0 10 -
12.06.2019 23:00:00 12,3 8,0 0 0 N 1015,2 10 -
12.06.2019 22:00:00 13,4 8,0 5 3 NNE 1015,0 10 -
12.06.2019 21:00:00 14,0 8,0 8 4 NNW 1015,0 30 -
12.06.2019 20:00:00 15,5 8,6 15 8 N 1015,0 30 -
12.06.2019 19:00:00 15,9 7,5 11 6 N 1015,2 10 -
12.06.2019 18:00:00 15,9 8,1 16 9 N 1015,5 30 -
12.06.2019 17:00:00 16,7 7,6 15 8 N 1015,8 10 -
12.06.2019 16:00:00 16,0 7,7 16 9 N 1015,9 10 -
12.06.2019 15:00:00 15,8 8,4 15 8 NNW 1016,2 10 -
12.06.2019 14:00:00 15,4 8,8 13 7 NW 1016,7 10 -
12.06.2019 13:00:00 15,8 9,5 13 7 NW 1017,0 30 -
12.06.2019 12:00:00 15,3 8,1 13 7 NNW 1017,2 10 -
12.06.2019 11:00:00 14,0 8,9 11 6 NNW 1017,4 10 -
12.06.2019 10:00:00 13,9 8,2 5 3 NE 1017,4 10 -
12.06.2019 09:00:00 11,0 10,0 8 4 SSE 1017,7 17 -
12.06.2019 08:00:00 11,4 9,3 4 2 NW 1017,6 21 -
12.06.2019 07:00:00 10,3 9,1 4 2 W 1017,7 21 -
12.06.2019 06:00:00 10,8 9,2 4 2 - 1017,8 10 -
12.06.2019 05:00:00 11,0 9,4 2 1 - 1018,1 10 -
12.06.2019 04:00:00 11,8 9,9 13 7 NNW 1018,8 10 -
12.06.2019 03:00:00 12,2 9,4 5 3 NNW 1019,4 10 -
12.06.2019 02:00:00 12,5 9,5 5 3 NW 1020,1 10 -
12.06.2019 01:00:00 13,2 8,9 9 5 N 1020,3 30 -
12.06.2019 00:00:00 13,5 8,6 16 9 N 1020,5 30 -
11.06.2019 23:00:00 13,5 9,8 18 10 NNW 1020,6 26 -
11.06.2019 22:00:00 13,7 9,7 13 7 N 1020,6 10 -
11.06.2019 21:00:00 13,9 9,5 18 10 N 1021,0 10 -
11.06.2019 20:00:00 14,4 10,0 15 8 N 1021,2 10 -

tt = temperature
td = dewpoint
ff = wind speed
dd = wind direction
ppp = reduced air pressure
vv = visibility
rr = precipitation

Next stations